HAWK-7A

导读

HAWK-7A是美国HE360运营的卫星,于2023年4月15日发射,NORAD编号56191,运行在近地轨道。它主要执行射频频谱监测、信号情报收集以及交通监测任务。该卫星技术创新性显著,采用独特的水推进器进行轨道机动,是同类型卫星中技术较为先进的一颗,目前仍在轨道正常运行。

Basic Information
目录编号:
56191
目录名称:
HAWK-7A
国际标识:
2023-054P
轨道中心:
EARTH
卫星名称:
HAWK-7A
卫星全名:
--
卫星状态:
在轨 (已飞行1238 天)
发射日期:
2023-04-15 UTC
国别 :
美国 (US)
星等 :
--
Orbit Information
数据来源 国际轨道数据
星历时间: 2026-09-03T12:26:42+0800
1天前
查看轨道信息
半长轴: 6859.702km
偏心率: 0.0004623
轨道倾角: 97.257°
近地点辐角 107.153°
升交点赤经 131.527°
平近点角 253.022°
近地点: 478.393km
远地点: 484.737km
周期: 94.236分钟
每日圈数: 15.280759
Detailed Information
使用方式:
暂无
2D Orbit Map
3D Orbit Map
Orbit Altitude Analysis Chart
Orbit Inclination Analysis Chart
Orbit Comprehensive Analysis Chart
View Comprehensive Chart
Conjunction Data List
Event ID Objects TCA Miss Dist (km) Collision Risk Probability Collision Risk Index (CRI) Action
CDM_260903-092005-619106-655922
HAWK-7A (56191)
2026-09-03T
09:20:00+0000
0.804 km
远距离
4.238415E-5 中风险 0.68
CDM_260905-131205-619105-947721
HAWK-7A (56191)
2026-09-05T
13:12:40+0000
0.846 km
远距离
3.949856E-5 中风险 0.67
CDM_260903-060805-619105-715426
HAWK-7A (56191)
2026-09-03T
06:08:03+0000
0.888 km
远距离
3.902592E-5 中风险 0.67
CDM_260905-003005-619105-935121
HAWK-7A (56191)
2026-09-05T
00:30:44+0000
1.034 km
极远距离
2.358788E-5 中风险 0.62
CDM_260904-085005-619106-356622
HAWK-7A (56191)
2026-09-04T
08:50:59+0000
1.194 km
极远距离
1.407812E-5 中风险 0.58
CDM_260902-132005-619106-396122
HAWK-7A (56191)
2026-09-02T
13:20:32+0000
1.374 km
极远距离
8.314845E-6 低风险 0.53
CDM_260905-151205-619105-822321
HAWK-7A (56191)
2026-09-05T
15:12:19+0000
1.605 km
极远距离
4.97149E-6 低风险 0.49
CDM_260905-002705-619105-886421
HAWK-7A (56191)
2026-09-05T
00:27:47+0000
1.805 km
极远距离
3.703692E-6 低风险 0.46
CDM_260903-061205-619106-732923
HAWK-7A (56191)
2026-09-03T
06:12:17+0000
1.879 km
极远距离
2.828172E-6 低风险 0.44
CDM_260904-062405-619106-378722
HAWK-7A (56191)
2026-09-04T
06:24:17+0000
1.692 km
极远距离
2.805825E-6 低风险 0.44